Location: Rounton
(54.4000°N, 1.3500°W)
Time: 03:32:24
(UTC+00:00)

Vanguard 1 - Pass Details

Date: 04 December 2021
Orbit: 652 x 3830 km, 34.2° (Epoch: 17 January)

Event Time Altitude Azimuth Distance (km) Brightness Sun altitude
Exits shadow 01:03:29 27° 125° (SE) 5,115 13.5 -55.4°
Drops below altitude 10° 01:10:52 10° 107° (ESE) 5,918 14.1 -54.9°
Sets 01:15:11 0° 100° (E) 6,568 14.5 -54.5°
